Location: Arrodets-la-Barthe
(43.0306°N, 0.2829°E)
Time: 03:50:53
(UTC+00:00)

Cosmos 2344 - Pass Details

Date: 02 June 2022
Orbit: 1228 x 3015 km, 63.3° (Epoch: 03 July)

Event Time Altitude Azimuth Distance (km) Brightness Sun altitude
Rises 02:14:32 0° 322° (NW) 4,370 6.6 -17.5°
Reaches altitude 10° 02:17:23 10° 330° (NNW) 3,522 6.2 -17.2°
Maximum altitude 02:25:29 41° 40° (NE) 2,328 5.5 -16.4°
Drops below altitude 10° 02:36:15 10° 107° (ESE) 4,677 6.8 -15.2°
Sets 02:40:40 0° 114° (ESE) 5,954 7.3 -14.7°
